Weather History for Butte, MT

Change the Weather History Date:

Wednesday, June 5, 2013

  Actual Average Record
Temperature  
Mean Temperature 52 °F 53 °F  
Max Temperature 72 °F 67 °F 87 °F (1969)
Min Temperature 32 °F 39 °F 26 °F (1917)
Degree Days  
Heating Degree Days 13 12  
Month to date heating degree days 76 63  
Since 1 June heating degree days 76 63  
Since 1 July heating degree days 8863 8995  
Cooling Degree Days 0 0  
Month to date cooling degree days 0 0  
Year to date cooling degree days 0 0  
Since 1 June cooling degree days 0 0  
Growing Degree Days 2 (Base 50)    
Moisture  
Dew Point 35 °F    
Average Humidity 62    
Maximum Humidity 96    
Minimum Humidity 27    
Precipitation  
Precipitation 0.00 in 0.09 in 1.60 in (1908)
Month to date precipitation 0.36 0.47  
Year to date precipitation 3.67 5.38  
Sea Level Pressure  
Sea Level Pressure 30.09 in    
Wind  
Wind Speed 5 mph (East)    
Max Wind Speed 15 mph    
Max Gust Speed 18 mph    
Visibility 10 miles    
Events      
T = Trace of Precipitation, MM = Missing Value Source: NWS Daily Summary

Daily Weather History Graph

Daily Weather History Graph

Search for Another Location

Airport:

Trip Planner

Search our weather history database for the weather conditions in past years. The results will help you decide how hot, cold, wet, or windy it might be!

Date:

Astronomy

Jun. 05, 2013 Rise Set
Actual Time 5:40 AM MDT 9:16 PM MDT
Civil Twilight 5:03 AM MDT 9:54 PM MDT
Nautical Twilight 4:12 AM MDT 10:45 PM MDT
Astronomical Twilight 3:05 AM MDT 11:52 PM MDT
Moon 3:55 AM MDT (6/5) 6:40 PM MDT (6/5)
Length of Visible Light 16h 51m
Length of Day
15h 35m
Waning Crescent, 8% of the Moon is Illuminated
Jun 5
Waning Crescent
Jun 8
New
Jun 16
First Quarter
Jun 23
Full
Jun 29
Last Quarter

Hourly Weather History & Observations

Time (MDT) Temp. Windchill Dew Point Humidity Pressure Visibility Wind Dir Wind Speed Gust Speed Precip Events Conditions
12:53 AM 42.1 °F 39.2 °F 35.1 °F 76% 30.21 in 10.0 mi SSE 4.6 mph - N/A   Clear
1:53 AM 37.9 °F 34.4 °F 35.1 °F 89% 30.20 in 10.0 mi ESE 4.6 mph - N/A   Clear
2:53 AM 36.0 °F 33.3 °F 33.1 °F 89% 30.20 in 10.0 mi SE 3.5 mph - N/A   Clear
3:53 AM 35.1 °F 31.0 °F 32.0 °F 89% 30.19 in 10.0 mi SE 4.6 mph - N/A   Clear
4:53 AM 34.0 °F 31.0 °F 30.9 °F 89% 30.19 in 10.0 mi East 3.5 mph - N/A   Clear
5:53 AM 32.0 °F 27.5 °F 30.0 °F 92% 30.19 in 10.0 mi SE 4.6 mph - N/A   Clear
6:53 AM 34.0 °F 31.0 °F 32.0 °F 92% 30.18 in 10.0 mi ESE 3.5 mph - N/A   Clear
7:53 AM 39.9 °F - 35.1 °F 83% 30.16 in 10.0 mi Calm Calm - N/A   Clear
8:53 AM 46.9 °F - 35.1 °F 63% 30.14 in 10.0 mi Calm Calm - N/A   Clear
9:53 AM 53.1 °F - 35.1 °F 50% 30.12 in 10.0 mi North 3.5 mph - N/A   Clear
10:53 AM 57.9 °F - 35.1 °F 42% 30.11 in 10.0 mi Calm Calm - N/A   Clear
11:53 AM 62.1 °F - 34.0 °F 35% 30.09 in 10.0 mi Calm Calm - N/A   Clear
12:53 PM 63.0 °F - 35.1 °F 35% 30.07 in 10.0 mi WNW 5.8 mph - N/A   Clear
1:53 PM 66.0 °F - 34.0 °F 30% 30.06 in 10.0 mi East 6.9 mph - N/A   Clear
2:53 PM 66.9 °F - 33.1 °F 28% 30.05 in 10.0 mi Calm Calm - N/A   Clear
3:53 PM 72.0 °F - 36.0 °F 27% 30.02 in 10.0 mi NW 12.7 mph 17.3 mph N/A   Clear
4:53 PM 69.1 °F - 36.0 °F 30% 30.02 in 10.0 mi West 4.6 mph - N/A   Clear
5:53 PM 70.0 °F - 35.1 °F 28% 30.02 in 10.0 mi NNW 9.2 mph - N/A   Clear
6:53 PM 70.0 °F - 35.1 °F 28% 30.01 in 10.0 mi WNW 9.2 mph - N/A   Clear
7:53 PM 69.1 °F - 35.1 °F 29% 29.98 in 10.0 mi NNW 10.4 mph - N/A   Clear
8:53 PM 64.9 °F - 36.0 °F 34% 29.98 in 10.0 mi WNW 4.6 mph - N/A   Clear
9:53 PM 57.0 °F - 43.0 °F 59% 30.00 in 10.0 mi SE 5.8 mph - N/A   Clear
10:53 PM 53.1 °F - 42.1 °F 66% 30.01 in 10.0 mi ESE 6.9 mph - N/A   Clear
11:53 PM 51.1 °F - 41.0 °F 68% 30.01 in 10.0 mi SE 4.6 mph - N/A   Clear